Total_Precipitation_Accumulation
0.65 0.65 0.93 0.93 0.92 0.87 0.86 0.89 0.97 1.07 1.19 1.47 1.70 1.79 1.85 1.88 1.90 1.82 1.76 1.86 2.03 2.11 2.12 2.09 1.95 1.84 1.70 1.65 1.54 1.33 1.20 1.22 1.22 1.16 1.16 1.27 1.41 1.58 1.87 2.03 1.97 1.46 1.42
0.38 0.49 0.79 0.83 0.87 0.87 0.77 0.75 0.87 1.03 1.16 1.36 1.62 1.82 1.78 1.75 1.70 1.69 1.69 1.79 1.89 1.85 1.84 1.77 1.68 1.56 1.46 1.39 1.25 1.08 1.09 1.20 1.42 1.48 1.50 1.42 1.53 1.72 1.90 1.80 1.97 1.47 1.29
0.32 0.40 0.55 0.76 0.84 0.79 0.73 0.77 0.88 0.98 1.11 1.30 1.54 1.75 1.70 1.65 1.64 1.65 1.63 1.72 1.74 1.70 1.61 1.49 1.43 1.32 1.20 1.09 0.96 0.93 1.01 1.25 1.63 1.87 1.94 1.44 1.13 1.51 1.68 1.52 1.36 1.19 1.14
0.34 0.39 0.48 0.63 0.74 0.74 0.74 0.80 0.92 1.05 1.19 1.31 1.38 1.53 1.59 1.60 1.61 1.66 1.65 1.57 1.55 1.49 1.40 1.32 1.21 1.11 1.04 0.93 0.87 0.92 1.07 1.29 1.64 2.05 2.05 1.32 0.82 1.00 1.18 1.07 1.03 0.91 0.92
0.35 0.40 0.49 0.51 0.62 0.72 0.75 0.81 0.90 1.07 1.23 1.26 1.27 1.35 1.47 1.54 1.57 1.64 1.62 1.53 1.49 1.44 1.34 1.21 1.09 0.99 0.92 0.84 0.83 0.93 1.15 1.38 1.76 1.89 1.45 1.28 1.12 0.99 0.91 0.90 0.88 0.77 0.69
0.34 0.34 0.47 0.51 0.53 0.61 0.70 0.76 0.80 0.93 1.08 1.14 1.23 1.27 1.35 1.39 1.43 1.51 1.47 1.42 1.40 1.35 1.21 1.15 1.04 0.92 0.81 0.74 0.79 0.94 1.17 1.49 1.60 1.12 1.01 1.10 1.02 1.02 0.93 1.03 0.90 0.76 0.66
0.41 0.38 0.47 0.54 0.55 0.58 0.64 0.67 0.72 0.81 0.96 1.05 1.20 1.30 1.32 1.28 1.33 1.35 1.34 1.29 1.28 1.21 1.08 1.04 0.96 0.88 0.83 0.80 0.84 0.96 1.17 1.54 1.25 0.87 1.01 1.27 1.11 0.97 0.95 1.12 1.07 0.85 0.68
0.51 0.42 0.44 0.55 0.58 0.58 0.64 0.69 0.73 0.81 0.94 1.03 1.07 1.14 1.13 1.10 1.14 1.14 1.18 1.18 1.15 1.08 0.99 0.96 0.88 0.85 0.82 0.81 0.86 0.96 1.13 1.26 0.83 0.84 0.96 1.06 0.93 0.95 0.99 1.16 1.19 1.01 0.82
0.56 0.53 0.51 0.50 0.51 0.58 0.74 0.82 0.82 0.82 0.90 0.99 0.97 0.99 1.03 1.09 1.10 1.10 1.11 1.10 1.05 0.97 0.91 0.89 0.76 0.71 0.67 0.72 0.77 0.87 1.07 1.21 0.95 0.96 0.91 0.88 0.75 0.84 1.03 1.15 1.09 1.04 0.95
0.74 0.70 0.70 0.66 0.60 0.61 0.72 0.86 0.91 0.89 0.92 0.94 1.00 1.03 1.10 1.18 1.18 1.13 0.98 1.00 0.98 0.93 0.92 0.90 0.81 0.72 0.72 0.80 0.89 1.03 1.14 0.95 1.00 0.97 1.08 1.00 0.87 0.98 1.19 1.27 1.16 1.09 1.05
1.04 0.94 0.89 0.76 0.69 0.71 0.69 0.77 0.89 0.94 0.97 1.05 1.15 1.19 1.35 1.54 1.47 1.47 1.26 1.31 1.25 1.16 1.15 1.17 1.09 0.95 0.88 0.87 1.12 1.39 1.13 0.90 1.10 1.16 1.18 1.12 1.07 1.27 1.50 1.48 1.39 1.27 1.17
1.34 1.04 0.97 0.85 0.82 0.79 0.71 0.82 1.04 1.00 1.08 1.23 1.40 1.50 1.79 2.01 1.99 1.60 1.77 1.88 1.78 1.73 1.62 1.62 1.74 1.46 1.15 1.11 1.64 1.98 1.17 0.96 1.01 1.08 1.09 1.11 1.38 1.67 1.86 1.68 1.51 1.44 1.34
1.33 1.32 1.26 1.11 1.10 1.07 1.13 1.04 1.19 1.34 1.51 1.50 1.47 1.68 2.09 1.98 1.83 1.73 1.87 2.20 2.30 2.31 2.21 2.19 2.26 1.91 1.79 1.98 2.15 1.94 1.39 1.30 1.29 1.34 1.33 1.52 1.85 2.12 2.15 1.86 1.69 1.62 1.56
1.63 1.86 1.93 1.65 1.68 1.57 1.41 1.33 1.32 1.40 1.58 1.72 1.91 2.02 2.19 2.31 2.26 2.13 2.19 2.36 2.48 2.58 2.96 2.80 2.69 2.47 2.38 2.24 2.19 1.94 1.70 1.72 1.75 1.86 2.03 1.85 1.96 2.25 2.37 2.17 1.96 1.86 1.83
2.29 2.52 2.71 2.31 2.23 2.11 2.10 2.06 1.78 1.87 1.98 2.10 2.27 2.45 2.49 2.67 2.72 2.68 2.59 2.52 2.33 2.38 2.71 2.95 2.83 2.83 2.73 2.55 2.31 2.11 1.97 1.90 1.83 1.96 2.09 2.23 2.22 2.25 2.44 2.57 2.39 2.16 2.07
2.80 2.96 3.14 3.05 3.06 2.91 2.67 2.70 2.68 2.33 2.41 2.40 2.46 2.48 2.59 2.79 3.12 3.25 3.10 2.94 2.56 2.44 2.51 2.77 2.84 3.04 2.98 2.79 2.22 2.09 2.05 2.05 2.10 2.04 2.19 2.69 2.70 2.33 2.33 2.60 2.76 2.70 2.54
3.70 3.62 3.68 3.67 3.92 3.81 3.39 3.07 2.80 2.63 2.59 2.76 2.80 2.78 2.82 3.02 3.33 3.29 3.10 2.76 2.45 2.42 2.59 2.58 2.59 2.85 2.68 2.56 2.45 2.48 2.43 2.33 2.21 2.18 2.28 2.75 2.74 2.38 2.23 2.28 2.56 2.78 2.89
4.53 4.46 4.27 3.86 4.24 4.26 3.95 3.73 3.40 3.13 3.17 3.15 2.88 2.91 2.82 2.96 2.87 2.94 2.64 2.32 2.34 2.47 2.58 2.75 2.64 2.72 2.76 2.85 2.90 2.86 2.71 2.56 2.14 2.01 1.93 2.05 2.32 2.02 2.13 2.34 2.41 2.49 2.88
4.95 5.17 5.14 5.03 4.79 4.53 4.35 4.20 4.00 3.83 3.50 3.14 3.00 3.02 2.71 2.40 2.20 2.37 2.30 2.25 2.23 2.41 2.45 2.30 2.66 2.89 2.90 2.92 2.72 2.76 2.40 2.26 2.04 1.80 1.77 1.72 1.87 1.99 1.99 2.06 2.17 2.22 2.65
4.90 5.45 5.63 5.69 5.36 4.86 4.41 4.07 4.00 3.76 3.46 3.18 2.99 2.93 2.52 2.26 2.00 2.25 2.23 2.16 2.16 2.35 2.48 2.60 2.89 3.01 2.71 2.65 2.42 2.30 2.02 1.66 1.62 1.61 1.49 1.55 1.68 1.66 1.80 1.98 2.21 2.02 2.45
4.47 5.16 5.30 5.60 5.09 4.46 3.95 3.58 3.47 3.27 2.96 2.84 2.72 2.64 2.49 2.24 2.14 2.39 2.25 2.29 2.12 2.21 2.24 2.34 2.59 2.71 2.35 2.46 2.93 2.52 1.92 1.54 1.54 1.43 1.42 1.50 1.56 1.63 1.85 2.14 2.34 2.39 2.43
3.87 4.57 4.63 4.35 4.15 3.71 3.34 3.19 3.03 2.98 2.64 2.47 2.34 2.41 2.20 2.05 2.08 2.11 2.27 2.12 2.06 2.19 2.19 2.25 2.46 2.45 2.16 2.36 2.87 2.99 2.44 2.04 1.73 1.38 1.36 1.41 1.55 1.78 1.88 1.93 2.33 2.62 2.61
3.52 3.61 3.24 3.10 3.20 3.16 3.00 2.90 2.76 2.77 2.57 2.31 2.16 2.18 2.02 1.81 1.84 1.88 1.89 1.96 2.06 1.86 2.01 2.19 2.32 2.41 2.29 2.23 2.50 2.95 2.73 2.37 2.02 1.64 1.51 1.60 1.80 1.95 2.01 2.15 2.25 2.47 2.66
2.68 2.60 2.57 2.56 2.63 2.84 2.84 2.62 2.45 2.17 2.09 2.03 1.92 1.98 1.96 1.71 1.65 1.68 1.69 1.84 1.92 1.86 2.10 1.83 1.95 2.21 2.43 2.25 2.27 2.33 2.39 2.61 2.57 2.14 1.78 1.66 1.77 1.91 1.99 2.00 2.06 2.34 2.58
2.02 2.09 2.09 2.39 2.51 2.54 2.52 2.48 2.52 2.25 2.07 2.02 2.12 2.33 2.25 1.93 1.61 1.46 1.57 1.73 1.83 1.88 1.96 1.90 2.02 1.98 2.05 2.11 2.20 2.20 2.34 2.57 2.42 2.33 2.13 1.90 1.81 1.66 1.72 1.84 2.02 2.26 2.42
1.36 1.49 1.63 1.93 2.16 2.23 2.18 2.19 2.25 2.29 2.27 2.08 2.01 2.07 2.01 1.86 1.66 1.49 1.52 1.73 1.81 1.84 1.86 1.91 1.92 1.85 1.93 2.04 2.09 2.12 2.30 2.34 2.28 2.37 2.23 2.05 1.94 1.67 1.65 1.72 1.93 2.09 2.17